Location: Donald C. Martin Observatory
(38.3885°N, 82.3916°W)
Time: 08:43:52
(UTC-05:00)

Cosmos 1484 Rocket - Visible Passes

Search period start: 11 December 2016 00:00
Search period end: 21 December 2016 00:00
Orbit: 507 x 564 km, 97.3° (Epoch: 10 December)

Date Brightness Start Highest point End Pass type
(mag) Time Alt. Az. Time Alt. Az. Time Alt. Az.
11 Dec 4.7 06:51:12 10° NNE 06:54:44 35° E 06:58:18 10° SSE visible
11 Dec 4.3 17:34:10 10° ESE 17:36:15 15° ENE 17:38:20 10° NNE visible
11 Dec 4.4 19:07:03 10° SSW 19:10:25 32° W 19:13:49 10° NNW visible
12 Dec 5.2 06:42:39 10° NE 06:45:58 27° E 06:49:19 10° SSE visible
12 Dec 3.9 18:58:07 10° S 19:01:40 42° W 19:05:13 10° NNW visible
13 Dec 5.6 06:34:10 10° NE 06:37:12 22° E 06:40:15 10° SSE visible
13 Dec 3.3 18:49:16 10° S 18:52:55 56° W 18:56:35 10° NNW visible
14 Dec 5.9 06:25:48 10° NE 06:28:25 17° E 06:31:03 10° SE visible
14 Dec 2.8 18:40:28 10° S 18:44:10 75° WSW 18:47:53 10° NNW visible
15 Dec 6.1 06:17:36 10° ENE 06:19:37 14° E 06:21:39 10° SE visible
15 Dec 2.5 18:31:44 10° SSE 18:35:26 83° ENE 18:39:09 10° N visible
16 Dec 6.4 06:09:54 10° ENE 06:10:49 11° E 06:11:44 10° ESE visible
16 Dec 2.6 18:23:03 10° SSE 18:26:43 62° ENE 18:30:23 10° N visible
17 Dec 2.8 18:14:26 10° SSE 18:17:59 47° ENE 18:21:35 10° N visible
18 Dec 3.2 18:05:52 10° SE 18:09:17 36° ENE 18:12:43 10° N visible
18 Dec 6.0 19:42:17 10° WSW 19:43:54 12° W 19:45:31 10° WNW visible
19 Dec 3.5 17:57:23 10° SE 18:00:35 28° ENE 18:03:49 10° NNE visible
19 Dec 5.7 19:32:45 10° SW 19:35:05 16° W 19:37:26 10° NW visible
20 Dec 3.5 07:06:45 10° NNE 07:10:37 59° E 07:14:31 10° S visible
20 Dec 3.8 17:48:58 10° ESE 17:51:54 22° ENE 17:54:50 10° NNE visible
20 Dec 5.3 19:23:29 10° SW 19:26:17 20° W 19:29:07 10° NW visible
